TimeCDT,TemperatureF,Dew PointF,Humidity,Sea Level PressureIn,VisibilityMPH,Wind Direction,Wind SpeedMPH,Gust SpeedMPH,PrecipitationIn,Events,Conditions,WindDirDegrees,DateUTC
12:15 AM,56.8,44.1,62,29.90,10.0,North,9.2,-,N/A,,Overcast,10,2013-10-03 05:15:00
12:35 AM,55.2,44.1,66,29.89,10.0,North,8.1,-,N/A,,Scattered Clouds,10,2013-10-03 05:35:00
12:55 AM,53.6,44.1,70,29.88,10.0,NNW,5.8,-,N/A,,Clear,340,2013-10-03 05:55:00
1:15 AM,51.4,43.9,75,29.88,10.0,North,5.8,-,N/A,,Clear,350,2013-10-03 06:15:00
1:35 AM,50.9,44.1,77,29.88,10.0,North,4.6,-,N/A,,Clear,350,2013-10-03 06:35:00
1:55 AM,50.2,44.2,80,29.89,10.0,North,3.5,-,N/A,,Scattered Clouds,350,2013-10-03 06:55:00
2:15 AM,49.5,44.4,83,29.89,10.0,NNW,4.6,-,N/A,,Scattered Clouds,340,2013-10-03 07:15:00
2:35 AM,48.6,44.4,86,29.88,10.0,North,4.6,-,N/A,,Scattered Clouds,360,2013-10-03 07:35:00
2:55 AM,48.6,44.8,87,29.88,10.0,NNW,5.8,-,N/A,,Scattered Clouds,340,2013-10-03 07:55:00
3:15 AM,47.7,44.6,89,29.88,10.0,NNW,4.6,-,N/A,,Clear,340,2013-10-03 08:15:00
3:35 AM,47.8,45.1,90,29.87,10.0,NNW,5.8,-,N/A,,Scattered Clouds,340,2013-10-03 08:35:00
3:55 AM,46.9,45.0,93,29.87,10.0,North,5.8,-,N/A,,Scattered Clouds,360,2013-10-03 08:55:00
4:15 AM,47.3,45.5,93,29.85,10.0,North,4.6,-,N/A,,Scattered Clouds,10,2013-10-03 09:15:00
4:35 AM,46.8,45.5,95,29.85,10.0,North,3.5,-,N/A,,Scattered Clouds,360,2013-10-03 09:35:00
4:55 AM,46.9,45.7,95,29.84,10.0,Calm,Calm,-,N/A,,Clear,0,2013-10-03 09:55:00
5:15 AM,47.3,46.0,95,29.84,10.0,NE,3.5,-,N/A,,Mostly Cloudy,40,2013-10-03 10:15:00
5:35 AM,47.8,46.9,97,29.83,10.0,NNE,5.8,-,N/A,,Overcast,30,2013-10-03 10:35:00
5:55 AM,48.2,47.3,97,29.83,10.0,North,5.8,-,N/A,,Overcast,10,2013-10-03 10:55:00
6:15 AM,48.2,47.3,97,29.83,10.0,North,4.6,-,N/A,,Overcast,350,2013-10-03 11:15:00
6:35 AM,48.2,47.3,97,29.83,10.0,NE,5.8,-,N/A,Thunderstorm,Overcast,50,2013-10-03 11:35:00
6:55 AM,48.2,47.7,98,29.82,7.0,NE,5.8,-,N/A,,Overcast,50,2013-10-03 11:55:00
7:15 AM,48.2,47.7,98,29.85,7.0,NNW,9.2,-,N/A,Thunderstorm,Overcast,330,2013-10-03 12:15:00
7:35 AM,48.4,47.8,98,29.85,3.0,NNW,9.2,-,N/A,,Overcast,340,2013-10-03 12:35:00
7:55 AM,48.2,47.7,98,29.87,0.2,NNW,10.4,-,N/A,Fog,Fog,340,2013-10-03 12:55:00
8:15 AM,48.0,47.8,99,29.85,0.5,North,12.7,-,N/A,Rain-Thunderstorm,Light Thunderstorms and Rain,360,2013-10-03 13:15:00
8:35 AM,48.2,47.8,99,29.87,0.2,North,11.5,17.3,N/A,Rain,Light Rain,360,2013-10-03 13:35:00
8:55 AM,48.2,48.0,99,29.87,0.5,North,9.2,-,N/A,,Unknown,360,2013-10-03 13:55:00
9:15 AM,48.2,48.2,100,29.85,0.8,North,12.7,-,0.01,Rain-Thunderstorm,Rain,10,2013-10-03 14:15:00
9:35 AM,48.0,47.8,99,29.87,5.0,North,13.8,-,0.04,Rain-Thunderstorm,Light Thunderstorms and Rain,350,2013-10-03 14:35:00
9:55 AM,47.8,47.7,99,29.85,10.0,North,13.8,20.7,0.04,,Overcast,10,2013-10-03 14:55:00
10:15 AM,47.7,47.5,99,29.84,0.5,NE,13.8,-,0.30,Rain-Thunderstorm,Rain,50,2013-10-03 15:15:00
10:35 AM,48.6,48.4,99,29.88,1.8,North,8.1,-,0.37,Rain-Thunderstorm,Heavy Thunderstorms and Rain,350,2013-10-03 15:35:00
10:55 AM,49.1,48.7,99,29.90,3.0,WNW,4.6,-,0.40,Rain-Thunderstorm,Light Thunderstorms and Rain,290,2013-10-03 15:55:00
11:15 AM,49.3,49.1,99,29.86,5.0,Calm,Calm,-,0.03,Rain-Thunderstorm,Light Thunderstorms and Rain,0,2013-10-03 16:15:00
11:35 AM,49.3,49.1,99,29.88,10.0,Calm,Calm,-,0.03,Thunderstorm,Unknown,0,2013-10-03 16:35:00
11:55 AM,49.5,49.1,99,29.87,10.0,Calm,Calm,-,0.06,Rain-Thunderstorm,Light Thunderstorms and Rain,0,2013-10-03 16:55:00
12:15 PM,50.0,49.3,97,29.87,10.0,Calm,Calm,-,N/A,Rain,Light Rain,0,2013-10-03 17:15:00
12:35 PM,50.4,50.0,99,29.87,10.0,North,4.6,-,N/A,Rain,Light Rain,10,2013-10-03 17:35:00
12:55 PM,50.7,50.2,98,29.87,10.0,North,6.9,-,N/A,Rain,Rain,360,2013-10-03 17:55:00
1:15 PM,50.9,50.2,97,29.87,7.0,North,5.8,-,0.02,Rain,Light Rain,360,2013-10-03 18:15:00
1:35 PM,51.3,50.7,98,29.87,10.0,North,6.9,-,0.02,,Overcast,360,2013-10-03 18:35:00
1:55 PM,51.1,50.4,97,29.85,10.0,North,9.2,-,0.03,Rain,Rain,350,2013-10-03 18:55:00
2:15 PM,51.3,50.9,99,29.85,10.0,North,5.8,-,N/A,,Light Drizzle,360,2013-10-03 19:15:00
2:35 PM,51.1,50.4,97,29.85,10.0,North,5.8,-,N/A,,Overcast,360,2013-10-03 19:35:00
2:55 PM,51.6,50.9,97,29.85,10.0,North,5.8,-,N/A,,Overcast,10,2013-10-03 19:55:00
3:15 PM,51.8,51.1,97,29.85,10.0,North,8.1,-,N/A,,Overcast,360,2013-10-03 20:15:00
3:35 PM,51.8,51.1,97,29.85,10.0,North,9.2,-,N/A,Rain,Light Rain,360,2013-10-03 20:35:00
3:55 PM,51.8,51.1,97,29.85,10.0,North,10.4,-,N/A,,Overcast,360,2013-10-03 20:55:00
4:15 PM,51.8,51.4,99,29.85,10.0,North,9.2,-,N/A,,Overcast,360,2013-10-03 21:15:00
4:35 PM,52.0,51.4,98,29.85,10.0,NNE,6.9,-,N/A,,Overcast,20,2013-10-03 21:35:00
4:55 PM,52.0,51.4,98,29.84,10.0,NNE,8.1,-,N/A,,Overcast,20,2013-10-03 21:55:00
5:15 PM,52.0,51.4,98,29.85,10.0,NNE,9.2,-,N/A,,Overcast,20,2013-10-03 22:15:00
5:35 PM,52.0,51.6,99,29.85,10.0,North,8.1,-,N/A,,Overcast,10,2013-10-03 22:35:00
5:55 PM,52.3,52.0,99,29.86,10.0,NNE,6.9,-,N/A,,Overcast,20,2013-10-03 22:55:00
6:15 PM,52.0,51.8,99,29.85,7.0,NNE,8.1,-,N/A,Rain,Light Rain,20,2013-10-03 23:15:00
6:35 PM,52.0,51.8,99,29.85,0.5,NNE,10.4,-,N/A,,Drizzle,20,2013-10-03 23:35:00
6:55 PM,51.8,51.8,100,29.85,0.2,North,10.4,-,N/A,,Light Drizzle,360,2013-10-03 23:55:00
7:15 PM,51.4,51.4,100,29.86,0.2,NNE,10.4,-,N/A,Rain,Light Rain,20,2013-10-04 00:15:00
7:35 PM,51.4,51.4,100,29.87,0.2,NNE,10.4,-,N/A,Rain,Light Rain,20,2013-10-04 00:35:00
7:55 PM,51.3,51.3,100,29.88,0.8,NNE,8.1,-,N/A,,Drizzle,20,2013-10-04 00:55:00
8:15 PM,51.3,51.3,100,29.89,0.8,NNE,6.9,-,0.01,Rain,Light Rain,20,2013-10-04 01:15:00
8:35 PM,51.4,51.4,100,29.89,2.5,NNE,10.4,-,0.02,,Drizzle,30,2013-10-04 01:35:00
8:55 PM,51.8,51.8,100,29.89,5.0,NE,9.2,-,0.03,,Drizzle,40,2013-10-04 01:55:00
9:15 PM,51.8,51.8,100,29.88,4.0,NE,10.4,-,0.01,Thunderstorm,Drizzle,40,2013-10-04 02:15:00
9:35 PM,52.2,52.2,100,29.87,3.0,NE,9.2,-,0.01,Rain,Light Rain,50,2013-10-04 02:35:00
9:55 PM,52.3,52.3,100,29.88,5.0,NE,12.7,-,0.01,,Light Drizzle,40,2013-10-04 02:55:00
10:15 PM,52.2,52.2,100,29.87,5.0,NE,12.7,19.6,N/A,Rain,Light Rain,40,2013-10-04 03:15:00
10:35 PM,52.0,52.0,100,29.87,4.0,NE,12.7,-,N/A,Rain,Rain,50,2013-10-04 03:35:00
11:35 PM,52.0,52.0,100,29.85,10.0,NE,13.8,20.7,N/A,,Overcast,40,2013-10-04 04:35:00
11:55 PM,52.0,52.0,100,29.84,7.0,NE,15.0,21.9,N/A,,Overcast,50,2013-10-04 04:55:00